Weather History for KAVX - January, 2014

Change the Weather History Date:

Tuesday, January 28, 2014

  Actual Average (WUND) Record (WUND)
Temperature  
Mean Temperature 60 °F -  
Max Temperature 64 °F - - (-1)
Min Temperature 55 °F - - (-1)
Degree Days  
Heating Degree Days 6    
Growing Degree Days 10 (Base 50)    
Moisture  
Dew Point 37 °F    
Average Humidity 45    
Maximum Humidity 65    
Minimum Humidity 19    
Precipitation  
Precipitation 0.00 in - - ()
Sea Level Pressure  
Sea Level Pressure 30.07 in    
Wind  
Wind Speed 4 mph (WNW)    
Max Wind Speed 10 mph    
Max Gust Speed -    
Visibility 10 miles    
Events      
Averages and records for this station are not official NWS values.
T = Trace of Precipitation, MM = Missing Value Source: NWS Daily Summary

Daily Weather History Graph

Daily Weather History Graph

Search for Another Location

Airport or City:

Trip Planner

Search our weather history database for the weather conditions in past years. The results will help you decide how hot, cold, wet, or windy it might be!

Date:

Astronomy

Jan. 28, 2014 Rise Set
Actual Time 6:52 AM PST 5:21 PM PST
Civil Twilight 6:25 AM PST 5:47 PM PST
Nautical Twilight 5:56 AM PST 6:17 PM PST
Astronomical Twilight 5:26 AM PST 6:47 PM PST
Moon 4:36 AM PST (1/28) 3:18 PM PST (1/28)
Length of Visible Light 11h 21m
Length of Day
10h 29m
Waning Crescent, 6% of the Moon is Illuminated
Jan 28
Waning Crescent
Jan 30
New
Feb 6
First Quarter
Feb 14
Full
Feb 22
Last Quarter

Hourly Weather History & Observations

Time (PST) Temp. Dew Point Humidity Pressure Visibility Wind Dir Wind Speed Gust Speed Precip Events Conditions
12:51 AM 57.9 °F 34.0 °F 41% 30.05 in 10.0 mi WSW 3.5 mph - N/A   Clear
1:51 AM 55.0 °F 41.0 °F 59% 30.06 in 10.0 mi Calm Calm - N/A   Clear
2:51 AM 55.9 °F 39.0 °F 53% 30.06 in 10.0 mi West 4.6 mph - N/A   Clear
3:51 AM 55.9 °F 41.0 °F 57% 30.07 in 10.0 mi NNE 3.5 mph - N/A   Clear
4:51 AM 55.9 °F 44.1 °F 64% 30.05 in 10.0 mi Calm Calm - N/A   Clear
5:51 AM 57.0 °F 43.0 °F 59% 30.06 in 8.0 mi Calm Calm - N/A   Clear
6:51 AM 55.9 °F 41.0 °F 57% 30.09 in 8.0 mi WNW 4.6 mph - N/A   Clear
7:51 AM 57.0 °F 41.0 °F 55% 30.10 in 10.0 mi WSW 5.8 mph - N/A   Clear
8:51 AM 60.1 °F 43.0 °F 53% 30.09 in 10.0 mi Calm Calm - N/A   Clear
9:51 AM 61.0 °F 45.0 °F 56% 30.12 in 10.0 mi West 4.6 mph - N/A   Clear
10:51 AM 63.0 °F 45.0 °F 52% 30.13 in 10.0 mi NW 4.6 mph - N/A   Clear
11:51 AM 64.0 °F 48.0 °F 56% 30.07 in 10.0 mi WSW 5.8 mph - N/A   Clear
12:51 PM 63.0 °F 51.1 °F 65% 30.06 in 10.0 mi WNW 4.6 mph - N/A   Clear
1:51 PM 64.0 °F 48.9 °F 58% 30.04 in 10.0 mi West 10.4 mph - N/A   Clear
2:51 PM 63.0 °F 42.1 °F 46% 30.03 in 10.0 mi WSW 6.9 mph - N/A   Unknown
3:51 PM 61.0 °F 45.0 °F 56% 30.05 in 10.0 mi WSW 3.5 mph - N/A   Clear
4:51 PM 63.0 °F 32.0 °F 31% 30.05 in 10.0 mi WNW 5.8 mph - N/A   Clear
5:51 PM 61.0 °F 28.0 °F 29% 30.06 in 10.0 mi North 6.9 mph - N/A   Clear
6:51 PM 63.0 °F 19.9 °F 19% 30.06 in 10.0 mi NW 4.6 mph - N/A   Clear
7:51 PM 60.1 °F 23.0 °F 24% 30.08 in 10.0 mi NE 3.5 mph - N/A   Clear
8:51 PM 64.0 °F 25.0 °F 23% 30.08 in 10.0 mi NNW 3.5 mph - N/A   Clear
9:51 PM 63.0 °F 25.0 °F 24% 30.08 in 10.0 mi NE 5.8 mph - N/A   Clear
10:51 PM 64.0 °F 28.0 °F 26% 30.07 in 10.0 mi NNW 4.6 mph - N/A   Clear
11:51 PM 62.1 °F 26.1 °F 25% 30.07 in 10.0 mi North 4.6 mph - N/A   Clear